,,,PA_Meas_PMT16A,,PR_Meas_QMR101_102,,RH_Meas_QMH101,,SR_Meas_QMS101,,TA_Meas_QMH101,,GenWind,,GenWind,
date,time,status,PA,status,PR,status,RH,status,SR,status,TA,status,DirAvg,status,SpdAvg,
2010-02-03, 00:00:04,VALID,1004.68,VALID,0,VALID,94.1328,VALID,0,VALID,23.4098,VALID,348,VALID,0,
2010-02-03, 00:01:04,VALID,1004.67,VALID,0,VALID,94.1022,VALID,0,VALID,23.3904,VALID,348,VALID,0,
2010-02-03, 00:02:04,VALID,1004.65,VALID,0,VALID,94.087,VALID,0,VALID,23.4311,VALID,315,VALID,0.139844,
2010-02-03, 00:03:04,VALID,1004.69,VALID,0,VALID,94.0641,VALID,0,VALID,23.4311,VALID,315,VALID,0,
2010-02-03, 00:04:04,VALID,1004.65,VALID,0,VALID,94.0107,VALID,0,VALID,23.3709,VALID,315,VALID,0,
2010-02-03, 00:05:04,VALID,1004.67,VALID,0,VALID,93.9725,VALID,0,VALID,23.3904,VALID,315,VALID,0.003125,
2010-02-03, 00:06:04,VALID,1004.65,VALID,0,VALID,93.942,VALID,0,VALID,23.3921,VALID,315,VALID,0,
2010-02-03, 00:07:04,VALID,1004.63,VALID,0,VALID,93.9344,VALID,0,VALID,23.3727,VALID,315,VALID,0,
2010-02-03, 00:08:04,VALID,1004.63,VALID,0,VALID,93.9039,VALID,0,VALID,23.332,VALID,315,VALID,0,
2010-02-03, 00:09:04,VALID,1004.62,VALID,0,VALID,93.881,VALID,0,VALID,23.3125,VALID,315,VALID,0,
2010-02-03, 00:10:04,VALID,1004.64,VALID,0,VALID,93.9115,VALID,0,VALID,23.3125,VALID,315,VALID,0,
2010-02-03, 00:11:04,VALID,1004.68,VALID,0,VALID,93.9802,VALID,0,VALID,23.332,VALID,315,VALID,0.00429688,
2010-02-03, 00:12:04,VALID,1004.64,VALID,0,VALID,94.0107,VALID,0,VALID,23.3514,VALID,315,VALID,0,
2010-02-03, 00:13:04,VALID,1004.69,VALID,0,VALID,94.0717,VALID,0,VALID,23.3921,VALID,315,VALID,0.450391,
2010-02-03, 00:14:04,VALID,1004.65,VALID,0,VALID,93.9191,VALID,0,VALID,23.3125,VALID,315,VALID,0.442969,
2010-02-03, 00:15:04,VALID,1004.64,VALID,0,VALID,93.7437,VALID,0,VALID,23.2754,VALID,315,VALID,0.469531,
2010-02-03, 00:16:04,VALID,1004.67,VALID,0,VALID,93.6826,VALID,0,VALID,23.2152,VALID,315,VALID,0.326172,
2010-02-03, 00:17:04,VALID,1004.66,VALID,0,VALID,93.6292,VALID,0,VALID,23.178,VALID,315,VALID,0.542969,
2010-02-03, 00:18:04,VALID,1004.68,VALID,0,VALID,93.5377,VALID,0,VALID,23.1002,VALID,315,VALID,0.350781,
2010-02-03, 00:19:04,VALID,1004.69,VALID,0,VALID,93.5758,VALID,0,VALID,23.0613,VALID,315,VALID,0.367578,
2010-02-03, 00:20:04,VALID,1004.71,VALID,0,VALID,93.6979,VALID,0,VALID,23.0401,VALID,315,VALID,0.424609,
2010-02-03, 00:21:04,VALID,1004.7,VALID,0,VALID,93.8429,VALID,0,VALID,23.0418,VALID,315,VALID,0.356641,
2010-02-03, 00:22:04,VALID,1004.72,VALID,0,VALID,94.0717,VALID,0,VALID,23.0807,VALID,315,VALID,0.192969,
2010-02-03, 00:23:04,VALID,1004.73,VALID,0,VALID,94.148,VALID,0,VALID,23.0613,VALID,315,VALID,0.447656,
2010-02-03, 00:24:04,VALID,1004.74,VALID,0,VALID,94.1785,VALID,0,VALID,23.0012,VALID,315,VALID,0.519922,
2010-02-03, 00:25:04,VALID,1004.75,VALID,0,VALID,94.209,VALID,0,VALID,22.9834,VALID,315,VALID,0.514453,
2010-02-03, 00:26:04,VALID,1004.76,VALID,0,VALID,94.2548,VALID,0,VALID,22.9834,VALID,315,VALID,0.536328,
2010-02-03, 00:27:04,VALID,1004.73,VALID,0,VALID,94.3082,VALID,0,VALID,22.9428,VALID,324,VALID,0.491016,
2010-02-03, 00:28:04,VALID,1004.74,VALID,0,VALID,94.4303,VALID,0,VALID,22.9834,VALID,329,VALID,0.475391,
2010-02-03, 00:29:04,VALID,1004.73,VALID,0,VALID,94.5142,VALID,0.100563,VALID,22.9817,VALID,331,VALID,0.415625,
2010-02-03, 00:30:04,VALID,1004.74,VALID,0,VALID,94.5142,VALID,0,VALID,22.9428,VALID,344,VALID,0.674609,
2010-02-03, 00:31:04,VALID,1004.76,VALID,0,VALID,94.5371,VALID,0,VALID,22.9233,VALID,344,VALID,0.566797,
2010-02-03, 00:32:04,VALID,1004.76,VALID,0,VALID,94.5676,VALID,0,VALID,22.9039,VALID,344,VALID,0.583984,
2010-02-03, 00:33:04,VALID,1004.72,VALID,0,VALID,94.5523,VALID,0,VALID,22.8649,VALID,344,VALID,0.498047,
2010-02-03, 00:34:04,VALID,1004.71,VALID,0,VALID,94.5905,VALID,0,VALID,22.8455,VALID,344,VALID,0.479297,
2010-02-03, 00:35:04,VALID,1004.69,VALID,0,VALID,94.621,VALID,0,VALID,22.8455,VALID,344,VALID,0.412109,
2010-02-03, 00:36:04,VALID,1004.71,VALID,0,VALID,94.6668,VALID,0,VALID,22.9073,VALID,344,VALID,0.383984,
2010-02-03, 00:37:04,VALID,1004.69,VALID,0,VALID,94.766,VALID,0,VALID,22.9251,VALID,344,VALID,0.387109,
2010-02-03, 00:38:04,VALID,1004.7,VALID,0,VALID,94.7965,VALID,0,VALID,22.9233,VALID,344,VALID,0.314453,
2010-02-03, 00:39:04,VALID,1004.72,VALID,0,VALID,94.8041,VALID,0,VALID,22.9039,VALID,344,VALID,0.306641,
2010-02-03, 00:40:04,VALID,1004.72,VALID,0,VALID,94.827,VALID,0,VALID,22.9233,VALID,344,VALID,0.330469,
2010-02-03, 00:41:04,VALID,1004.73,VALID,0,VALID,94.8804,VALID,0,VALID,22.9834,VALID,340,VALID,0.452344,
2010-02-03, 00:42:04,VALID,1004.69,VALID,0,VALID,94.9185,VALID,0,VALID,23.0206,VALID,341,VALID,0.275781,
2010-02-03, 00:43:04,VALID,1004.7,VALID,0,VALID,94.9414,VALID,0,VALID,23.0012,VALID,341,VALID,0.209766,
2010-02-03, 00:44:04,VALID,1004.69,VALID,0,VALID,94.9414,VALID,0,VALID,23.0012,VALID,341,VALID,0,
2010-02-03, 00:45:04,VALID,1004.67,VALID,0,VALID,94.9414,VALID,0,VALID,23.0418,VALID,341,VALID,0,
2010-02-03, 00:46:04,VALID,1004.67,VALID,0,VALID,94.9414,VALID,0,VALID,23.0807,VALID,341,VALID,0,
2010-02-03, 00:47:04,VALID,1004.66,VALID,0,VALID,94.9567,VALID,0,VALID,23.1002,VALID,342,VALID,0,
2010-02-03, 00:48:04,VALID,1004.63,VALID,0,VALID,94.9643,VALID,0,VALID,23.0984,VALID,343,VALID,0,
2010-02-03, 00:49:04,VALID,1004.64,VALID,0,VALID,94.9643,VALID,0.100563,VALID,23.1763,VALID,341,VALID,0.416406,
2010-02-03, 00:50:04,VALID,1004.63,VALID,0,VALID,95.0101,VALID,0,VALID,23.2736,VALID,354,VALID,0.384375,
2010-02-03, 00:51:04,VALID,1004.61,VALID,0,VALID,95.0024,VALID,0,VALID,23.332,VALID,354,VALID,0.480469,
2010-02-03, 00:52:04,VALID,1004.63,VALID,0,VALID,95.0024,VALID,0,VALID,23.4098,VALID,352,VALID,0.457422,
2010-02-03, 00:53:04,VALID,1004.64,VALID,0,VALID,95.0024,VALID,0,VALID,23.5089,VALID,333,VALID,0.573047,
2010-02-03, 00:54:04,VALID,1004.65,VALID,0,VALID,94.949,VALID,0,VALID,23.5655,VALID,335,VALID,0.5875,
2010-02-03, 00:55:04,VALID,1004.63,VALID,0,VALID,94.8575,VALID,0,VALID,23.6628,VALID,340,VALID,0.560547,
2010-02-03, 00:56:04,VALID,1004.59,VALID,0,VALID,94.7354,VALID,0.100563,VALID,23.7796,VALID,349,VALID,0.733984,
2010-02-03, 00:57:04,VALID,1004.6,VALID,0,VALID,94.4989,VALID,0.100563,VALID,23.8575,VALID,360,VALID,0.623828,
2010-02-03, 00:58:04,VALID,1004.57,VALID,0,VALID,94.1633,VALID,0,VALID,23.9566,VALID,356,VALID,0.623438,
2010-02-03, 00:59:04,VALID,1004.59,VALID,0,VALID,93.6369,VALID,0,VALID,24.015,VALID,359,VALID,0.563281,
2010-02-03, 01:00:04,VALID,1004.57,VALID,0,VALID,92.9808,VALID,0,VALID,24.0539,VALID,348,VALID,0.822656,
2010-02-03, 01:01:04,VALID,1004.58,VALID,0,VALID,92.3781,VALID,0,VALID,24.091,VALID,348,VALID,0.392188,
2010-02-03, 01:02:04,VALID,1004.58,VALID,0,VALID,91.9128,VALID,0,VALID,24.091,VALID,348,VALID,0.594922,
2010-02-03, 01:03:04,VALID,1004.57,VALID,0,VALID,91.6763,VALID,0,VALID,24.1105,VALID,348,VALID,0.536328,
2010-02-03, 01:04:04,VALID,1004.56,VALID,0,VALID,91.5161,VALID,0,VALID,24.1105,VALID,348,VALID,0.549609,
2010-02-03, 01:05:04,VALID,1004.55,VALID,0,VALID,91.394,VALID,0,VALID,24.1513,VALID,348,VALID,0.548437,
2010-02-03, 01:06:04,VALID,1004.57,VALID,0,VALID,91.2872,VALID,0,VALID,24.13,VALID,348,VALID,0.594531,
2010-02-03, 01:07:04,VALID,1004.57,VALID,0,VALID,91.188,VALID,0,VALID,24.13,VALID,347,VALID,0.618359,
2010-02-03, 01:08:04,VALID,1004.58,VALID,0,VALID,91.1728,VALID,0,VALID,24.1513,VALID,347,VALID,0.558203,
2010-02-03, 01:09:04,VALID,1004.56,VALID,0,VALID,91.1499,VALID,0,VALID,24.1105,VALID,347,VALID,0.485156,
2010-02-03, 01:10:04,VALID,1004.56,VALID,0,VALID,91.2033,VALID,0,VALID,24.1105,VALID,347,VALID,0.498047,
2010-02-03, 01:11:04,VALID,1004.54,VALID,0,VALID,91.2948,VALID,0,VALID,24.1105,VALID,347,VALID,0.476172,
2010-02-03, 01:12:04,VALID,1004.52,VALID,0,VALID,91.3482,VALID,0,VALID,24.091,VALID,347,VALID,0.41875,
2010-02-03, 01:13:04,VALID,1004.52,VALID,0,VALID,91.4398,VALID,0,VALID,24.0521,VALID,347,VALID,0.539453,
2010-02-03, 01:14:04,VALID,1004.51,VALID,0,VALID,91.5313,VALID,0,VALID,24.0734,VALID,347,VALID,0.534375,
2010-02-03, 01:15:04,VALID,1004.48,VALID,0,VALID,91.6457,VALID,0,VALID,24.015,VALID,347,VALID,0.457422,
2010-02-03, 01:16:04,VALID,1004.47,VALID,0,VALID,91.7449,VALID,0,VALID,23.9955,VALID,347,VALID,0.424219,
2010-02-03, 01:17:04,VALID,1004.45,VALID,0,VALID,91.8059,VALID,0,VALID,23.9742,VALID,356,VALID,0.577734,
2010-02-03, 01:18:04,VALID,1004.48,VALID,0,VALID,91.8441,VALID,0,VALID,23.9761,VALID,356,VALID,0.523828,
2010-02-03, 01:19:04,VALID,1004.44,VALID,0,VALID,91.8899,VALID,0,VALID,23.9761,VALID,1,VALID,0.730469,
2010-02-03, 01:20:04,VALID,1004.45,VALID,0,VALID,91.8975,VALID,0,VALID,23.9742,VALID,356,VALID,1.02227,
2010-02-03, 01:21:04,VALID,1004.46,VALID,0,VALID,91.867,VALID,0,VALID,23.9937,VALID,358,VALID,0.779688,
2010-02-03, 01:22:04,VALID,1004.45,VALID,0,VALID,91.8136,VALID,0,VALID,23.9937,VALID,358,VALID,0.573828,
2010-02-03, 01:23:04,VALID,1004.42,VALID,0,VALID,91.7907,VALID,0,VALID,24.015,VALID,358,VALID,0.518359,
2010-02-03, 01:24:04,VALID,1004.45,VALID,0,VALID,91.7068,VALID,0.100563,VALID,24.0132,VALID,360,VALID,0.822656,
2010-02-03, 01:25:04,VALID,1004.43,VALID,0,VALID,91.6152,VALID,0,VALID,24.0326,VALID,359,VALID,0.613672,
2010-02-03, 01:26:04,VALID,1004.45,VALID,0,VALID,91.5466,VALID,0,VALID,24.0539,VALID,5,VALID,0.640625,
2010-02-03, 01:27:04,VALID,1004.47,VALID,0,VALID,91.5237,VALID,0,VALID,24.0326,VALID,4,VALID,0.537891,
2010-02-03, 01:28:04,VALID,1004.48,VALID,0,VALID,91.455,VALID,0,VALID,24.0539,VALID,3,VALID,0.5625,
2010-02-03, 01:29:04,VALID,1004.48,VALID,0,VALID,91.3635,VALID,0,VALID,24.0539,VALID,358,VALID,0.607813,
2010-02-03, 01:30:04,VALID,1004.44,VALID,0,VALID,91.3177,VALID,0,VALID,24.0521,VALID,358,VALID,0.767578,
2010-02-03, 01:31:04,VALID,1004.48,VALID,0,VALID,91.1804,VALID,0,VALID,24.0929,VALID,358,VALID,0.520703,
2010-02-03, 01:32:04,VALID,1004.46,VALID,0,VALID,91.0354,VALID,0,VALID,24.0697,VALID,358,VALID,0.577734,
2010-02-03, 01:33:04,VALID,1004.46,VALID,0,VALID,90.86,VALID,0,VALID,24.1123,VALID,353,VALID,0.778125,
2010-02-03, 01:34:04,VALID,1004.49,VALID,0,VALID,90.7074,VALID,0,VALID,24.13,VALID,357,VALID,0.428906,
2010-02-03, 01:35:04,VALID,1004.48,VALID,0,VALID,90.6006,VALID,0,VALID,24.1087,VALID,356,VALID,0.426172,
2010-02-03, 01:36:04,VALID,1004.49,VALID,0,VALID,90.4556,VALID,0,VALID,24.1494,VALID,347,VALID,0.574219,
2010-02-03, 01:37:04,VALID,1004.46,VALID,0,VALID,90.1886,VALID,0,VALID,24.1707,VALID,350,VALID,0.964063,
2010-02-03, 01:38:04,VALID,1004.49,VALID,0,VALID,89.8377,VALID,0,VALID,24.2078,VALID,336,VALID,0.496875,
2010-02-03, 01:39:04,VALID,1004.5,VALID,0,VALID,89.7156,VALID,0,VALID,24.2681,VALID,339,VALID,0.343359,
2010-02-03, 01:40:04,VALID,1004.51,VALID,0,VALID,89.6927,VALID,0,VALID,24.2681,VALID,358,VALID,0.425781,
2010-02-03, 01:41:04,VALID,1004.49,VALID,0,VALID,89.7233,VALID,0,VALID,24.2875,VALID,358,VALID,0.276172,
2010-02-03, 01:42:04,VALID,1004.51,VALID,0,VALID,89.708,VALID,0,VALID,24.2681,VALID,357,VALID,0.239063,
2010-02-03, 01:43:04,VALID,1004.52,VALID,0,VALID,89.6927,VALID,0,VALID,24.2273,VALID,357,VALID,0.197656,
2010-02-03, 01:44:04,VALID,1004.51,VALID,0,VALID,89.4944,VALID,0,VALID,24.2699,VALID,335,VALID,0.686328,
2010-02-03, 01:45:04,VALID,1004.49,VALID,0,VALID,89.5631,VALID,0,VALID,24.2875,VALID,348,VALID,0.442578,
2010-02-03, 01:46:04,VALID,1004.52,VALID,0,VALID,89.5554,VALID,0,VALID,24.2681,VALID,348,VALID,0.219141,
2010-02-03, 01:47:04,VALID,1004.55,VALID,0,VALID,89.5402,VALID,0,VALID,24.2273,VALID,331,VALID,0.175,
2010-02-03, 01:48:04,VALID,1004.52,VALID,0,VALID,89.4028,VALID,0,VALID,24.2486,VALID,349,VALID,0.6125,
2010-02-03, 01:49:04,VALID,1004.55,VALID,0,VALID,89.296,VALID,0,VALID,24.2273,VALID,349,VALID,0.197656,
2010-02-03, 01:50:04,VALID,1004.55,VALID,0,VALID,89.2045,VALID,0,VALID,24.2681,VALID,350,VALID,0.524219,
2010-02-03, 01:51:04,VALID,1004.55,VALID,0,VALID,89.2274,VALID,0,VALID,24.2681,VALID,350,VALID,0.3875,
2010-02-03, 01:52:04,VALID,1004.54,VALID,0,VALID,89.1664,VALID,0,VALID,24.2875,VALID,350,VALID,0.419922,
2010-02-03, 01:53:04,VALID,1004.5,VALID,0,VALID,89.5631,VALID,0,VALID,24.2875,VALID,350,VALID,0.575391,
2010-02-03, 01:54:04,VALID,1004.48,VALID,0,VALID,89.7461,VALID,0,VALID,24.2681,VALID,350,VALID,0.286719,
2010-02-03, 01:55:04,VALID,1004.47,VALID,0,VALID,89.7767,VALID,0,VALID,24.2078,VALID,4,VALID,0.417188,
2010-02-03, 01:56:04,VALID,1004.47,VALID,0,VALID,89.8835,VALID,0,VALID,24.2097,VALID,19,VALID,0.370703,
2010-02-03, 01:57:04,VALID,1004.45,VALID,0,VALID,89.7233,VALID,0,VALID,24.1902,VALID,11,VALID,0.402344,
2010-02-03, 01:58:04,VALID,1004.48,VALID,0,VALID,89.7461,VALID,0,VALID,24.1902,VALID,11,VALID,0.343359,
2010-02-03, 01:59:04,VALID,1004.47,VALID,0,VALID,89.7156,VALID,0,VALID,24.1689,VALID,11,VALID,0.463281,
2010-02-03, 02:00:04,VALID,1004.48,VALID,0,VALID,89.8911,VALID,0,VALID,24.1884,VALID,11,VALID,0.317578,
2010-02-03, 02:01:04,VALID,1004.5,VALID,0,VALID,89.914,VALID,0,VALID,24.1902,VALID,11,VALID,0.292969,
2010-02-03, 02:02:04,VALID,1004.52,VALID,0,VALID,89.8987,VALID,0.100563,VALID,24.1902,VALID,11,VALID,0.449219,
2010-02-03, 02:03:04,VALID,1004.51,VALID,0,VALID,89.9903,VALID,0,VALID,24.1884,VALID,11,VALID,0.291016,
2010-02-03, 02:04:04,VALID,1004.51,VALID,0,VALID,90.0208,VALID,0,VALID,24.2097,VALID,11,VALID,0.354688,
2010-02-03, 02:05:04,VALID,1004.54,VALID,0,VALID,89.9903,VALID,0.100563,VALID,24.2097,VALID,11,VALID,0.363281,
2010-02-03, 02:06:04,VALID,1004.52,VALID,0,VALID,89.7156,VALID,0,VALID,24.2097,VALID,13,VALID,1.00898,
2010-02-03, 02:07:04,VALID,1004.55,VALID,0,VALID,88.556,VALID,0,VALID,24.3246,VALID,18,VALID,1.39805,
2010-02-03, 02:08:04,VALID,1004.54,VALID,0,VALID,87.9305,VALID,0,VALID,24.422,VALID,25,VALID,0.718359,
2010-02-03, 02:09:04,VALID,1004.54,VALID,0,VALID,87.816,VALID,0,VALID,24.5212,VALID,5,VALID,0.616406,
2010-02-03, 02:10:04,VALID,1004.56,VALID,0,VALID,87.488,VALID,0,VALID,24.5212,VALID,349,VALID,0.935938,
2010-02-03, 02:11:04,VALID,1004.55,VALID,0,VALID,87.16,VALID,0,VALID,24.5193,VALID,351,VALID,0.757422,
2010-02-03, 02:12:04,VALID,1004.58,VALID,0,VALID,87.0684,VALID,0,VALID,24.5796,VALID,5,VALID,0.762891,
2010-02-03, 02:13:04,VALID,1004.56,VALID,0,VALID,86.5344,VALID,0,VALID,24.599,VALID,351,VALID,1.13672,
2010-02-03, 02:14:04,VALID,1004.56,VALID,0,VALID,86.7327,VALID,0.100563,VALID,24.6166,VALID,358,VALID,0.528125,
2010-02-03, 02:15:04,VALID,1004.59,VALID,0,VALID,86.748,VALID,0.100563,VALID,24.6166,VALID,359,VALID,0.589453,
2010-02-03, 02:16:04,VALID,1004.57,VALID,0,VALID,86.8472,VALID,0.100563,VALID,24.5758,VALID,5,VALID,0.652344,
2010-02-03, 02:17:04,VALID,1004.58,VALID,0,VALID,86.748,VALID,0.100563,VALID,24.5777,VALID,354,VALID,0.694922,
2010-02-03, 02:18:04,VALID,1004.57,VALID,0,VALID,86.748,VALID,0.100563,VALID,24.5777,VALID,349,VALID,0.435547,
2010-02-03, 02:19:04,VALID,1004.59,VALID,0,VALID,86.4886,VALID,0.100563,VALID,24.5777,VALID,4,VALID,1.03945,
2010-02-03, 02:20:04,VALID,1004.6,VALID,0,VALID,87.0226,VALID,0.100563,VALID,24.5972,VALID,360,VALID,0.481641,
2010-02-03, 02:21:04,VALID,1004.61,VALID,0,VALID,86.8624,VALID,0.100563,VALID,24.5601,VALID,360,VALID,0.510938,
2010-02-03, 02:22:04,VALID,1004.58,VALID,0,VALID,87.0913,VALID,0.100563,VALID,24.5174,VALID,360,VALID,0.382031,
2010-02-03, 02:23:04,VALID,1004.56,VALID,0,VALID,87.1981,VALID,0.100563,VALID,24.5193,VALID,360,VALID,0.420703,
2010-02-03, 02:24:04,VALID,1004.57,VALID,0,VALID,87.1066,VALID,0,VALID,24.4804,VALID,360,VALID,0.513672,
2010-02-03, 02:25:04,VALID,1004.56,VALID,0,VALID,87.2439,VALID,0.100563,VALID,24.459,VALID,354,VALID,0.557422,
2010-02-03, 02:26:04,VALID,1004.57,VALID,0,VALID,87.1371,VALID,0.100563,VALID,24.4414,VALID,346,VALID,0.166797,
2010-02-03, 02:27:04,VALID,1004.56,VALID,0,VALID,87.1676,VALID,0.100563,VALID,24.4201,VALID,346,VALID,0.284375,
2010-02-03, 02:28:04,VALID,1004.57,VALID,0,VALID,87.3125,VALID,0.100563,VALID,24.4414,VALID,346,VALID,0.379297,
2010-02-03, 02:29:04,VALID,1004.58,VALID,0,VALID,86.8624,VALID,0,VALID,24.4238,VALID,341,VALID,0.499219,
2010-02-03, 02:30:04,VALID,1004.58,VALID,0,VALID,86.9692,VALID,0.100563,VALID,24.422,VALID,342,VALID,0.285937,
2010-02-03, 02:31:04,VALID,1004.55,VALID,0,VALID,86.748,VALID,0.100563,VALID,24.4006,VALID,342,VALID,0.233203,
2010-02-03, 02:32:04,VALID,1004.59,VALID,0,VALID,86.8853,VALID,0.100563,VALID,24.4414,VALID,342,VALID,0.337891,
2010-02-03, 02:33:04,VALID,1004.55,VALID,0,VALID,86.7404,VALID,0,VALID,24.422,VALID,351,VALID,0.542969,
2010-02-03, 02:34:04,VALID,1004.54,VALID,0,VALID,86.3666,VALID,0.100563,VALID,24.4006,VALID,338,VALID,0.516406,
2010-02-03, 02:35:04,VALID,1004.55,VALID,0,VALID,86.2445,VALID,0.100563,VALID,24.422,VALID,348,VALID,0.619922,
2010-02-03, 02:36:04,VALID,1004.51,VALID,0,VALID,86.8014,VALID,0,VALID,24.4201,VALID,338,VALID,0.466797,
2010-02-03, 02:37:04,VALID,1004.5,VALID,0,VALID,87.1294,VALID,0.100563,VALID,24.422,VALID,353,VALID,0.697656,
2010-02-03, 02:38:04,VALID,1004.5,VALID,0,VALID,87.076,VALID,0.100563,VALID,24.4025,VALID,353,VALID,0.460156,
2010-02-03, 02:39:04,VALID,1004.52,VALID,0,VALID,87.1447,VALID,0.100563,VALID,24.3441,VALID,353,VALID,0.260547,
2010-02-03, 02:40:04,VALID,1004.53,VALID,0,VALID,87.0684,VALID,0.100563,VALID,24.3459,VALID,2,VALID,0.6375,
2010-02-03, 02:41:04,VALID,1004.53,VALID,0,VALID,87.2668,VALID,0.100563,VALID,24.3052,VALID,351,VALID,0.571484,
2010-02-03, 02:42:04,VALID,1004.49,VALID,0,VALID,87.1752,VALID,0.100563,VALID,24.307,VALID,349,VALID,0.749219,
2010-02-03, 02:43:04,VALID,1004.53,VALID,0,VALID,87.1752,VALID,0.100563,VALID,24.2662,VALID,340,VALID,0.493359,
2010-02-03, 02:44:04,VALID,1004.52,VALID,0,VALID,86.9845,VALID,0,VALID,24.2681,VALID,359,VALID,1.05391,
2010-02-03, 02:45:04,VALID,1004.52,VALID,0,VALID,87.1447,VALID,0,VALID,24.2894,VALID,8,VALID,0.464063,
2010-02-03, 02:46:04,VALID,1004.47,VALID,0,VALID,87.076,VALID,0,VALID,24.2681,VALID,2,VALID,0.403516,
2010-02-03, 02:47:04,VALID,1004.49,VALID,0,VALID,87.0226,VALID,0,VALID,24.2681,VALID,344,VALID,0.260156,
2010-02-03, 02:48:04,VALID,1004.45,VALID,0,VALID,87.1981,VALID,0,VALID,24.2486,VALID,351,VALID,0.505859,
2010-02-03, 02:49:04,VALID,1004.45,VALID,0,VALID,87.4346,VALID,0,VALID,24.2699,VALID,351,VALID,0.244531,
2010-02-03, 02:50:04,VALID,1004.46,VALID,0,VALID,87.3278,VALID,0,VALID,24.1884,VALID,351,VALID,0.438672,
2010-02-03, 02:51:04,VALID,1004.44,VALID,0,VALID,87.4956,VALID,0,VALID,24.1902,VALID,351,VALID,0.255469,
2010-02-03, 02:52:04,VALID,1004.44,VALID,0,VALID,87.3888,VALID,0,VALID,24.1902,VALID,351,VALID,0.261719,
2010-02-03, 02:53:04,VALID,1004.41,VALID,0,VALID,87.2668,VALID,0,VALID,24.1513,VALID,356,VALID,0.729297,
2010-02-03, 02:54:04,VALID,1004.41,VALID,0,VALID,87.4041,VALID,0,VALID,24.1707,VALID,348,VALID,0.703516,
2010-02-03, 02:55:04,VALID,1004.39,VALID,0,VALID,86.7785,VALID,0,VALID,24.1902,VALID,358,VALID,0.514844,
2010-02-03, 02:56:04,VALID,1004.37,VALID,0,VALID,86.8624,VALID,0,VALID,24.1884,VALID,4,VALID,0.382422,
2010-02-03, 02:57:04,VALID,1004.36,VALID,0,VALID,86.3437,VALID,0,VALID,24.2486,VALID,355,VALID,0.940234,
2010-02-03, 02:58:04,VALID,1004.37,VALID,0,VALID,85.9851,VALID,0,VALID,24.2875,VALID,354,VALID,0.777734,
2010-02-03, 02:59:04,VALID,1004.35,VALID,0,VALID,85.9699,VALID,0,VALID,24.3052,VALID,346,VALID,0.480469,
2010-02-03, 03:00:04,VALID,1004.34,VALID,0,VALID,85.7105,VALID,0,VALID,24.3459,VALID,336,VALID,0.770312,
2010-02-03, 03:01:04,VALID,1004.29,VALID,0,VALID,86.0004,VALID,0,VALID,24.3636,VALID,13,VALID,0.952734,
2010-02-03, 03:02:04,VALID,1004.3,VALID,0,VALID,85.4435,VALID,0.100563,VALID,24.4025,VALID,349,VALID,0.750781,
2010-02-03, 03:03:04,VALID,1004.31,VALID,0,VALID,85.1002,VALID,0,VALID,24.4414,VALID,325,VALID,1.17891,
2010-02-03, 03:04:04,VALID,1004.3,VALID,0,VALID,85.3214,VALID,0,VALID,24.4804,VALID,341,VALID,0.702344,
2010-02-03, 03:05:04,VALID,1004.32,VALID,0,VALID,85.3138,VALID,0,VALID,24.5017,VALID,1,VALID,0.726172,
2010-02-03, 03:06:04,VALID,1004.32,VALID,0,VALID,85.1688,VALID,0.100563,VALID,24.4998,VALID,347,VALID,0.712891,
2010-02-03, 03:07:04,VALID,1004.33,VALID,0,VALID,85.1917,VALID,0,VALID,24.4998,VALID,356,VALID,1.56172,
2010-02-03, 03:08:04,VALID,1004.34,VALID,0,VALID,85.0696,VALID,0,VALID,24.5406,VALID,347,VALID,0.799219,
2010-02-03, 03:09:04,VALID,1004.34,VALID,0,VALID,84.8179,VALID,0,VALID,24.5388,VALID,346,VALID,0.613281,
2010-02-03, 03:10:04,VALID,1004.36,VALID,0,VALID,84.9171,VALID,0,VALID,24.5388,VALID,355,VALID,0.943359,
2010-02-03, 03:11:04,VALID,1004.34,VALID,0,VALID,84.5738,VALID,0,VALID,24.5388,VALID,350,VALID,0.647266,
2010-02-03, 03:12:04,VALID,1004.39,VALID,0,VALID,84.6424,VALID,0,VALID,24.5777,VALID,359,VALID,0.975391,
2010-02-03, 03:13:04,VALID,1004.39,VALID,0,VALID,84.6729,VALID,0,VALID,24.599,VALID,355,VALID,0.460156,
2010-02-03, 03:14:04,VALID,1004.41,VALID,0,VALID,84.528,VALID,0,VALID,24.5777,VALID,332,VALID,0.818359,
2010-02-03, 03:15:04,VALID,1004.44,VALID,0,VALID,84.6806,VALID,0,VALID,24.5777,VALID,349,VALID,0.235938,
2010-02-03, 03:16:04,VALID,1004.47,VALID,0,VALID,84.8332,VALID,0.100563,VALID,24.5582,VALID,349,VALID,0.0492188,
2010-02-03, 03:17:04,VALID,1004.48,VALID,0,VALID,84.9094,VALID,0,VALID,24.5174,VALID,349,VALID,0.065625,
2010-02-03, 03:18:04,VALID,1004.48,VALID,0,VALID,84.856,VALID,0,VALID,24.5406,VALID,338,VALID,0.428906,
2010-02-03, 03:19:04,VALID,1004.49,VALID,0,VALID,84.9781,VALID,0,VALID,24.5193,VALID,326,VALID,0.00195313,
2010-02-03, 03:20:04,VALID,1004.51,VALID,0,VALID,85.123,VALID,0,VALID,24.5406,VALID,291,VALID,0.26875,
2010-02-03, 03:21:04,VALID,1004.5,VALID,0,VALID,85.0925,VALID,0,VALID,24.4998,VALID,326,VALID,0.739062,
2010-02-03, 03:22:04,VALID,1004.47,VALID,0,VALID,85.3748,VALID,0,VALID,24.4804,VALID,344,VALID,0.444922,
2010-02-03, 03:23:04,VALID,1004.47,VALID,0,VALID,85.3138,VALID,0,VALID,24.4609,VALID,357,VALID,0.849609,
2010-02-03, 03:24:04,VALID,1004.43,VALID,0,VALID,85.4435,VALID,0,VALID,24.422,VALID,337,VALID,0.405469,
2010-02-03, 03:25:04,VALID,1004.47,VALID,0,VALID,85.5884,VALID,0,VALID,24.4025,VALID,341,VALID,0.902734,
2010-02-03, 03:26:04,VALID,1004.47,VALID,0,VALID,85.5808,VALID,0,VALID,24.4025,VALID,340,VALID,0.65,
2010-02-03, 03:27:04,VALID,1004.44,VALID,0,VALID,85.68,VALID,0,VALID,24.383,VALID,353,VALID,0.819141,
2010-02-03, 03:28:04,VALID,1004.43,VALID,0,VALID,85.7791,VALID,0,VALID,24.383,VALID,340,VALID,0.514844,
2010-02-03, 03:29:04,VALID,1004.44,VALID,0,VALID,85.8478,VALID,0,VALID,24.3636,VALID,340,VALID,0.601953,
2010-02-03, 03:30:04,VALID,1004.44,VALID,0,VALID,86.0767,VALID,0,VALID,24.3654,VALID,360,VALID,0.45,
2010-02-03, 03:31:04,VALID,1004.47,VALID,0,VALID,86.0004,VALID,0,VALID,24.3441,VALID,354,VALID,0.692969,
2010-02-03, 03:32:04,VALID,1004.43,VALID,0,VALID,86.1453,VALID,0,VALID,24.3654,VALID,358,VALID,0.668359,
2010-02-03, 03:33:04,VALID,1004.47,VALID,0,VALID,86.3284,VALID,0,VALID,24.3441,VALID,18,VALID,0.614844,
2010-02-03, 03:34:04,VALID,1004.48,VALID,0,VALID,86.1987,VALID,0,VALID,24.3246,VALID,5,VALID,0.555078,
2010-02-03, 03:35:04,VALID,1004.51,VALID,0,VALID,86.2292,VALID,0,VALID,24.3441,VALID,349,VALID,0.762109,
2010-02-03, 03:36:04,VALID,1004.52,VALID,0,VALID,86.3437,VALID,0,VALID,24.3849,VALID,349,VALID,0.619922,
2010-02-03, 03:37:04,VALID,1004.51,VALID,0,VALID,86.2826,VALID,0,VALID,24.3654,VALID,347,VALID,0.593359,
2010-02-03, 03:38:04,VALID,1004.53,VALID,0,VALID,86.3971,VALID,0,VALID,24.3246,VALID,348,VALID,0.817969,
2010-02-03, 03:39:04,VALID,1004.51,VALID,0,VALID,86.2979,VALID,0,VALID,24.3441,VALID,347,VALID,0.720703,
2010-02-03, 03:40:04,VALID,1004.53,VALID,0,VALID,86.2598,VALID,0,VALID,24.3654,VALID,358,VALID,1.4,
2010-02-03, 03:41:04,VALID,1004.56,VALID,0,VALID,86.069,VALID,0,VALID,24.4043,VALID,341,VALID,0.905078,
2010-02-03, 03:42:04,VALID,1004.54,VALID,0,VALID,85.8936,VALID,0,VALID,24.422,VALID,344,VALID,1.09219,
2010-02-03, 03:43:04,VALID,1004.57,VALID,0,VALID,85.5732,VALID,0,VALID,24.5017,VALID,360,VALID,1.18125,